Weather History for KHOU - November, 2012

Change the Weather History Date:

Tuesday, November 20, 2012

  Actual Average Record
Temperature  
Mean Temperature 64 °F 61 °F  
Max Temperature 79 °F 71 °F 84 °F (1977)
Min Temperature 49 °F 51 °F 27 °F (1969)
Degree Days  
Heating Degree Days 1 6  
Month to date heating degree days 78 81  
Since 1 July heating degree days 118 111  
Cooling Degree Days 1    
Growing Degree Days 16 (Base 50)    
Moisture  
Dew Point 55 °F    
Average Humidity 73    
Maximum Humidity 100    
Minimum Humidity 45    
Precipitation  
Precipitation 0.00 in 0.13 in 1.85 in (1907)
Month to date precipitation 0.57 2.94  
Year to date precipitation 39.39 44.63  
Sea Level Pressure  
Sea Level Pressure 30.19 in    
Wind  
Wind Speed 1 mph (SW)    
Max Wind Speed 8 mph    
Max Gust Speed 18 mph    
Visibility 6 miles    
Events Fog    
T = Trace of Precipitation, MM = Missing Value Source: NWS Daily Summary

Daily Weather History Graph

Daily Weather History Graph

Search for Another Location

Airport or City:

Trip Planner

Search our weather history database for the weather conditions in past years. The results will help you decide how hot, cold, wet, or windy it might be!

Date:

Astronomy

Nov. 20, 2012 Rise Set
Actual Time 6:50 AM CST 5:23 PM CST
Civil Twilight 6:24 AM CST 5:48 PM CST
Nautical Twilight 5:55 AM CST 6:17 PM CST
Astronomical Twilight 5:27 AM CST 6:46 PM CST
Moon 12:40 PM CST (11/20) No Moon Set
Length of Visible Light 11h 24m
Length of Day
10h 33m
First Quarter, 51% of the Moon is Illuminated
Nov 20
First Quarter
Nov 28
Full
Dec 6
Last Quarter
Dec 13
New
Dec 19
First Quarter

Hourly Weather History & Observations

Time (CST) Temp. Dew Point Humidity Pressure Visibility Wind Dir Wind Speed Gust Speed Precip Events Conditions
12:53 AM 55.0 °F 53.1 °F 93% 30.19 in 6.0 mi Calm Calm - N/A   Partly Cloudy
1:14 AM 55.4 °F 53.6 °F 94% 30.17 in 4.0 mi Calm Calm - N/A   Partly Cloudy
1:53 AM 55.0 °F 53.1 °F 93% 30.19 in 4.0 mi Calm Calm - N/A   Scattered Clouds
2:03 AM 55.4 °F 53.6 °F 94% 30.18 in 5.0 mi Calm Calm - N/A   Mostly Cloudy
2:53 AM 53.1 °F 52.0 °F 96% 30.19 in 1.0 mi Calm Calm - N/A   Mist
3:53 AM 54.0 °F 53.1 °F 97% 30.18 in 1.0 mi Calm Calm - N/A   Mist
4:01 AM 53.6 °F 53.6 °F 100% 30.17 in 3.0 mi Calm Calm - N/A   Overcast
4:27 AM 53.6 °F 51.8 °F 94% 30.17 in 1.8 mi Calm Calm - N/A   Overcast
4:32 AM 53.6 °F 51.8 °F 94% 30.17 in 0.2 mi Calm Calm - N/A Fog Fog
4:37 AM 53.6 °F 51.8 °F 94% 30.17 in 2.0 mi Calm Calm - N/A   Mostly Cloudy
4:53 AM 54.0 °F 53.1 °F 97% 30.19 in 2.0 mi Calm Calm - N/A   Overcast
5:53 AM 53.1 °F 52.0 °F 96% 30.19 in 4.0 mi Calm Calm - N/A   Mostly Cloudy
6:53 AM 55.0 °F 54.0 °F 96% 30.20 in 1.0 mi Calm Calm - N/A   Mostly Cloudy
7:09 AM 55.4 °F 53.6 °F 94% 30.20 in 2.0 mi Calm Calm - N/A   Overcast
7:16 AM 55.4 °F 55.4 °F 100% 30.20 in 3.0 mi Calm Calm - N/A   Overcast
7:53 AM 59.0 °F 57.0 °F 93% 30.22 in 3.0 mi Calm Calm - N/A   Overcast
8:53 AM 61.0 °F 60.1 °F 97% 30.24 in 4.0 mi Calm Calm - N/A   Mostly Cloudy
9:53 AM 66.9 °F 62.1 °F 84% 30.25 in 7.0 mi Calm Calm - N/A   Scattered Clouds
10:53 AM 73.0 °F 55.9 °F 55% 30.24 in 10.0 mi Calm Calm - N/A   Scattered Clouds
11:53 AM 75.0 °F 54.0 °F 48% 30.21 in 10.0 mi Calm Calm - N/A   Scattered Clouds
12:53 PM 77.0 °F 54.0 °F 45% 30.18 in 10.0 mi Calm Calm - N/A   Partly Cloudy
1:53 PM 79.0 °F 54.0 °F 42% 30.16 in 10.0 mi NNE 5.8 mph - N/A   Scattered Clouds
2:53 PM 78.1 °F 55.0 °F 45% 30.14 in 10.0 mi West 3.5 mph - N/A   Partly Cloudy
3:53 PM 78.1 °F 54.0 °F 43% 30.13 in 10.0 mi NW 4.6 mph - N/A   Partly Cloudy
4:53 PM 77.0 °F 54.0 °F 45% 30.14 in 10.0 mi Calm Calm - N/A   Scattered Clouds
5:53 PM 71.1 °F 57.0 °F 61% 30.16 in 10.0 mi South 6.9 mph - N/A   Scattered Clouds
6:53 PM 66.9 °F 57.9 °F 73% 30.18 in 10.0 mi South 5.8 mph - N/A   Partly Cloudy
7:53 PM 64.9 °F 57.0 °F 75% 30.20 in 10.0 mi South 4.6 mph - N/A   Partly Cloudy
8:53 PM 63.0 °F 57.0 °F 81% 30.21 in 10.0 mi South 3.5 mph - N/A   Partly Cloudy
9:53 PM 62.1 °F 57.0 °F 84% 30.21 in 10.0 mi Calm Calm - N/A   Partly Cloudy
10:53 PM 60.1 °F 55.9 °F 86% 30.22 in 10.0 mi SW 3.5 mph - N/A   Scattered Clouds
11:53 PM 60.1 °F 55.9 °F 86% 30.21 in 10.0 mi Calm Calm - N/A   Partly Cloudy